Regional Weather Roundup
Issued by NWS

Current Version | Previous Version | Text Only | Print | Product List | Glossary On
Versions: 1 2 3 4 5 6 7 8 9 10 11 12 13 14 15 16 17 18 19 20 21 22 23 24 25 26 27 28 29 30 31 32 33 34 35 36 37 38 39 40 41 42 43 44 45 46 47 48 49 50
000
ASUS44 KOUN 271010
RWROK

WEATHER ROUNDUP FOR OKLAHOMA
NATIONAL WEATHER SERVICE NORMAN OK
500 AM CDT FRI MAR 27 2015

NOTE: "FAIR" INDICATES FEW OR NO CLOUDS BELOW 12,000 FEET WITH NO
      SIGNIFICANT WEATHER AND/OR OBSTRUCTIONS TO VISIBILITY.

OKZ001>007-009>012-014-015-017-271100-
NORTHWEST OKLAHOMA AND THE PANHANDLE

CITY           SKY/WX    TMP DP  RH WIND       PRES   REMARKS
GAGE           CLOUDY    46  34  62 N5        30.14F
GUYMON         MOCLDY    44  32  62 NE8       30.16S
ENID/WOODRING  CLOUDY    45  36  70 N16G23    30.12R
$$

OKZ016-021>023-033>039-044-045-271100-
SOUTHWEST OKLAHOMA

CITY           SKY/WX    TMP DP  RH WIND       PRES   REMARKS
LAWTON/REGL    CLEAR     46  34  62 W7        30.08F
LAWTON/FT SILL PTCLDY    49  32  52 NW6       30.07F
FREDERICK      CLEAR     41  33  73 N7        30.08S
CLINTON        MOCLDY    49  33  54 N10       30.13R
HOBART         PTCLDY    45  32  60 N8        30.09F
ALTUS AFB      CLEAR     38  33  81 SW6       30.10F WCI  34
$$

OKZ018>020-024>031-271100-
CENTRAL OKLAHOMA

CITY           SKY/WX    TMP DP  RH WIND       PRES   REMARKS
OKLAHOMA CITY  CLOUDY    53  34  48 NW15      30.09R
OKC/WILEY POST CLOUDY    54  34  46 NW12      30.10R
OKC/TINKER AFB CLOUDY    53  35  50 NW12      30.07R
STILLWATER     CLOUDY    49  35  58 N16       30.08R
$$

OKZ008-013-054>072-271100-
NORTHEAST OKLAHOMA

CITY           SKY/WX    TMP DP  RH WIND       PRES   REMARKS
TULSA          CLOUDY    42  36  79 N8        30.06R
TULSA/JONES    CLOUDY    43  34  70 CALM      30.05R
PONCA CITY     MOCLDY    41  35  79 N13       30.13R
BARTLESVILLE   MOCLDY    40  35  83 NE9       30.13R WCI  34
MUSKOGEE       CLOUDY    41  36  82 CALM      30.06S
$$

OKZ032-040>043-046>053-073>077-271100-
SOUTH CENTRAL/SOUTHEAST OKLAHOMA

CITY           SKY/WX    TMP DP  RH WIND       PRES   REMARKS
ARDMORE/DWNTWN PTCLDY    43  34  70 CALM      30.08F
MCALESTER      MOCLDY    44  36  73 SW8       30.05F
$$



USA.gov is the U.S. government's official web portal to all federal, state and local government web resources and services.